sat.trackr.live / text

‹ back to catalog

STARLINK-4737

NORAD 53834 · 2022-114S

PAYLOAD ACTIVE UNKNOWN

§ Identity

Operator
Country
US
Launch date
2022-09-19
Launch site
AFETR
Launch vehicle
Mass (kg)
RCS (m²)

Purposes: comms

External: N2YO · Heavens-Above · Gunter

§ Orbital elements

Epoch: 2026-05-25T04:20:37.262112Z

Period
95.44 min
Inclination
53.2141°
Eccentricity
0.0001162
Mean motion
15.08843631 rev/d
Perigee alt
538.9 km
Apogee alt
540.5 km
Semi-major
6,917.9 km
B*
-6.9302e-5
RAAN
320.4080°
Arg perigee
86.6074°
Mean anomaly
273.5051°
Rev number
20,438

§ Raw data

STARLINK-47371 53834U 22114S   26145.18098683 -.00001391  00000+0 -69302-4 0  99932 53834  53.2141 320.4080 0001162  86.6074 273.5051 15.08843631204388

JSON: /api/v1/satellites/53834 · /tle

For live sub-satellite position, see the globe view (requires WebGL).

§ Visibility from observer

Set your observer location to see the next 7 days of passes ≥ 10°. The values pass through the URL so the page stays shareable.

No JS? Fill the form by hand. The geolocation button needs JavaScript.